sat.trackr.live / text

‹ back to catalog

STARLINK-37198

NORAD 68386 · 2026-063G

PAYLOAD ACTIVE UNKNOWN

§ Identity

Operator
Country
US
Launch date
2026-03-26
Launch site
AFWTR
Launch vehicle
Mass (kg)
RCS (m²)

Purposes: comms

External: N2YO · Heavens-Above · Gunter

§ Orbital elements

Epoch: 2026-09-19T21:49:46.962912Z

Period
93.91 min
Inclination
97.2806°
Eccentricity
0.0000512
Mean motion
15.33447701 rev/d
Perigee alt
465.2 km
Apogee alt
465.9 km
Semi-major
6,843.7 km
B*
4.5049e-4
RAAN
43.8609°
Arg perigee
94.0169°
Mean anomaly
266.1132°
Rev number
2,766

§ Raw data

STARLINK-371981 68386U 26063G   26262.90957133  .00014498  00000+0  45049-3 0  99932 68386  97.2806  43.8609 0000512  94.0169 266.1132 15.33447701 27669

JSON: /api/v1/satellites/68386 · /tle

For live sub-satellite position, see the globe view (requires WebGL).

§ Visibility from observer

Set your observer location to see the next 7 days of passes ≥ 10°. The values pass through the URL so the page stays shareable.

No JS? Fill the form by hand. The geolocation button needs JavaScript.